Location: 相模原市立博物館
(35.5593°N, 139.3931°E)
Time: 05:17:15
(UTC+09:00)

ISS - Visible Passes

Search period start: 15 December 2018 00:00
Search period end: 25 December 2018 00:00
Orbit: 401 x 408 km, 51.6° (Epoch: 15 December)

Date Brightness Start Highest point End Pass type
(mag) Time Alt. Az. Time Alt. Az. Time Alt. Az.
16 Dec -0.7 17:27:36 10° W 17:29:52 18° SW 17:32:08 10° S visible
22 Dec -0.6 05:44:48 10° S 05:46:56 16° SE 05:49:04 10° E visible
24 Dec -2.6 05:35:32 10° SSW 05:38:40 44° SE 05:41:50 10° ENE visible
